King Salmon, AK

6:20 AM AKST on February 24, 2017 (GMT -0900)
King Salmon

Weather History for PAKN - April, 2013

Change the Weather History Date:

Sunday, April 21, 2013

  Actual Average Record
Temperature  
Mean Temperature 33 °F 36 °F  
Max Temperature 48 °F 45 °F 61 °F (2016)
Min Temperature 18 °F 27 °F -1 °F (1972)
Degree Days  
Heating Degree Days 32 29  
Month to date heating degree days 850 695  
Since 1 July heating degree days 10054 9578  
Cooling Degree Days 0    
Month to date cooling degree days 0  
Year to date cooling degree days 0  
Moisture  
Dew Point 24 °F    
Average Humidity 0    
Maximum Humidity 0    
Minimum Humidity 0    
Precipitation  
Precipitation 0.00 in 0.03 in 0.28 in (1961)
Month to date precipitation 0.06 0.65  
Year to date precipitation 5.89 3.13  
Snow  
Snow 0.00 in 0.10 in 1.10 in (1960)
Month to date snowfall 0.8 3.2  
Since 1 July snowfall 74.5 45.1  
Snow Depth 0.00 in    
Sea Level Pressure  
Sea Level Pressure 30.32 in    
Wind  
Wind Speed 0 mph (North)    
Max Wind Speed 15 mph    
Max Gust Speed 26 mph    
Visibility 10 miles    
Events      
T = Trace of Precipitation, MM = Missing Value Source: NWS Daily Summary

Daily Weather History Graph

Daily Weather History Graph

Search for Another Location

Airport or City:

Trip Planner

Search our weather history database for the weather conditions in past years. The results will help you decide how hot, cold, wet, or windy it might be!

Date:

Astronomy

Apr. 21, 2013 Rise Set
Actual Time 6:56 AM AKDT 9:55 PM AKDT
Civil Twilight 6:10 AM AKDT 10:42 PM AKDT
Nautical Twilight 5:07 AM AKDT 11:45 PM AKDT
Astronomical Twilight 3:32 AM AKDT 1:26 AM AKDT
Moon 5:01 PM AKDT (4/21) 5:21 AM AKDT (4/21)
Length of Visible Light 16h 32m
Length of Day
14h 59m
Waxing Gibbous, 81% of the Moon is Illuminated
Apr 21
Waxing Gibbous
Apr 25
Full
May 2
Last Quarter
May 9
New
May 17
First Quarter

Hourly Weather History & Observations

Time (AKDT) Temp. Windchill Dew Point Humidity Pressure Visibility Wind Dir Wind Speed Gust Speed Precip Events Conditions
12:54 AM 30.0 °F 25.2 °F 25.0 °F 82% 30.31 in 10.0 mi North 4.6 mph - N/A   Scattered Clouds
1:54 AM 28.9 °F 23.9 °F 24.1 °F 82% 30.31 in 10.0 mi North 4.6 mph - N/A   Partly Cloudy
2:54 AM 28.9 °F 25.2 °F 24.1 °F 82% 30.32 in 10.0 mi North 3.5 mph - N/A   Clear
3:54 AM 28.0 °F 21.7 °F 24.1 °F 85% 30.31 in 10.0 mi NNE 5.8 mph - N/A   Mostly Cloudy
4:54 AM 28.0 °F 21.7 °F 25.0 °F 88% 30.31 in 10.0 mi NNW 5.8 mph - N/A   Mostly Cloudy
5:54 AM 30.0 °F 24.1 °F 26.1 °F 85% 30.31 in 10.0 mi NNE 5.8 mph - N/A   Overcast
6:54 AM 30.0 °F 25.2 °F 25.0 °F 82% 30.30 in 10.0 mi ENE 4.6 mph - N/A   Mostly Cloudy
7:54 AM 30.0 °F 21.1 °F 24.1 °F 79% 30.30 in 10.0 mi North 10.4 mph - N/A   Clear
8:54 AM 33.1 °F 28.7 °F 25.0 °F 72% 30.31 in 10.0 mi NW 4.6 mph - N/A   Scattered Clouds
9:54 AM 39.9 °F 33.9 °F 26.1 °F 58% 30.31 in 10.0 mi NNE 9.2 mph - N/A   Scattered Clouds
10:54 AM 43.0 °F 36.8 °F 24.1 °F 47% 30.31 in 10.0 mi NE 11.5 mph - N/A   Scattered Clouds
11:54 AM 44.1 °F 37.7 °F 25.0 °F 47% 30.31 in 10.0 mi North 12.7 mph 19.6 mph N/A   Scattered Clouds
12:54 PM 46.0 °F 40.6 °F 25.0 °F 44% 30.33 in 10.0 mi North 11.5 mph - N/A   Scattered Clouds
1:54 PM 46.0 °F 43.1 °F 25.0 °F 44% 30.33 in 10.0 mi North 5.8 mph 19.6 mph N/A   Scattered Clouds
2:54 PM 46.9 °F - 24.1 °F 41% 30.32 in 10.0 mi North 11.5 mph - N/A   Scattered Clouds
3:54 PM 46.9 °F - 26.1 °F 44% 30.32 in 10.0 mi North 15.0 mph 23.0 mph N/A   Scattered Clouds
4:54 PM 46.9 °F - 23.0 °F 39% 30.32 in 10.0 mi North 9.2 mph 20.7 mph N/A   Scattered Clouds
5:54 PM 48.0 °F - 21.0 °F 34% 30.30 in 10.0 mi NNE 13.8 mph 20.7 mph N/A   Scattered Clouds
6:54 PM 46.9 °F - 21.0 °F 36% 30.31 in 10.0 mi NNE 11.5 mph - N/A   Partly Cloudy
7:54 PM 46.0 °F 40.6 °F 21.0 °F 37% 30.31 in 10.0 mi North 11.5 mph - N/A   Partly Cloudy
8:54 PM 42.1 °F 37.1 °F 25.0 °F 51% 30.33 in 10.0 mi NNW 8.1 mph - N/A   Partly Cloudy
9:54 PM 37.0 °F 31.0 °F 25.0 °F 62% 30.33 in 10.0 mi North 8.1 mph - N/A   Partly Cloudy
10:54 PM 33.1 °F 26.9 °F 24.1 °F 70% 30.36 in 10.0 mi North 6.9 mph - N/A   Partly Cloudy
11:54 PM 30.0 °F 23.2 °F 23.0 °F 75% 30.38 in 10.0 mi NNE 6.9 mph - N/A   Partly Cloudy